Weather History for KP53 - May, 2013

Change the Weather History Date:

Saturday, May 25, 2013

  Actual Average (KISQ) Record (KISQ)
Temperature  
Mean Temperature 40 °F -  
Max Temperature 52 °F 62 °F 79 °F (1972)
Min Temperature 30 °F 42 °F 25 °F (1988)
Degree Days  
Heating Degree Days 24    
Moisture  
Dew Point 33 °F    
Average Humidity 69    
Maximum Humidity 82    
Minimum Humidity 54    
Precipitation  
Precipitation 0.00 in - - ()
Sea Level Pressure  
Sea Level Pressure 30.40 in    
Wind  
Wind Speed 6 mph (East)    
Max Wind Speed 12 mph    
Max Gust Speed -    
Averages and records for this station are not official NWS values.
T = Trace of Precipitation, MM = Missing Value Source: NWS Daily Summary

Daily Weather History Graph

Daily Weather History Graph

Search for Another Location

Airport or City:

Trip Planner

Search our weather history database for the weather conditions in past years. The results will help you decide how hot, cold, wet, or windy it might be!

Date:

Astronomy

May. 25, 2013 Rise Set
Actual Time 6:02 AM EDT 9:25 PM EDT
Civil Twilight 5:25 AM EDT 10:02 PM EDT
Nautical Twilight 4:37 AM EDT 10:50 PM EDT
Astronomical Twilight 3:35 AM EDT 11:53 PM EDT
Moon 10:11 PM EDT (5/25) 6:30 AM EDT (5/25)
Length of Visible Light 16h 36m
Length of Day
15h 22m
Full, 100% of the Moon is Illuminated
May 25
Full
May 31
Last Quarter
Jun 8
New
Jun 16
First Quarter
Jun 23
Full

Hourly Weather History & Observations

Time (EDT) Temp. Windchill Dew Point Humidity Pressure Visibility Wind Dir Wind Speed Gust Speed Precip Events Conditions
12:56 AM 35.1 °F 30.1 °F 28.9 °F 78% 30.40 in - South 5.8 mph - N/A   Unknown
1:56 AM 34.0 °F 28.8 °F 28.0 °F 79% 30.39 in - South 5.8 mph - N/A   Unknown
2:56 AM 33.1 °F 26.9 °F 28.0 °F 82% 30.39 in - South 6.9 mph - N/A   Unknown
3:56 AM 32.0 °F 24.8 °F 27.0 °F 82% 30.39 in - South 8.1 mph - N/A   Unknown
4:56 AM 32.0 °F 24.8 °F 27.0 °F 82% 30.40 in - South 8.1 mph - N/A   Unknown
5:56 AM 30.9 °F 24.3 °F 26.1 °F 82% 30.41 in - South 6.9 mph - N/A   Unknown
6:56 AM 32.0 °F 27.5 °F 27.0 °F 82% 30.41 in - South 4.6 mph - N/A   Unknown
7:56 AM 37.9 °F 34.4 °F 30.0 °F 73% 30.44 in - South 4.6 mph - N/A   Unknown
8:56 AM 45.0 °F - 35.1 °F 68% 30.46 in - Calm Calm - N/A   Unknown
9:56 AM 48.9 °F - 36.0 °F 61% 30.46 in - NE 3.5 mph - N/A   Unknown
10:56 AM 48.0 °F - 36.0 °F 63% 30.43 in - NNE 6.9 mph - N/A   Unknown
11:56 AM 48.0 °F - 36.0 °F 63% 30.44 in - NNE 6.9 mph - N/A   Unknown
12:56 PM 46.9 °F - 35.1 °F 63% 30.43 in - North 8.1 mph - N/A   Unknown
1:56 PM 46.0 °F 41.0 °F 36.0 °F 68% 30.43 in - NNE 10.4 mph - N/A   Unknown
2:56 PM 46.9 °F - 37.0 °F 68% 30.43 in - NNE 8.1 mph - N/A   Unknown
3:56 PM 48.9 °F - 34.0 °F 56% 30.42 in - NNE 11.5 mph - N/A   Unknown
4:56 PM 48.0 °F - 36.0 °F 63% 30.41 in - North 10.4 mph - N/A   Unknown
5:56 PM 48.9 °F - 37.0 °F 64% 30.40 in - NNE 8.1 mph - N/A   Unknown
6:56 PM 51.1 °F - 35.1 °F 54% 30.38 in - NNE 9.2 mph - N/A   Unknown
7:56 PM 50.0 °F - 35.1 °F 57% 30.35 in - North 10.4 mph - N/A   Unknown
8:56 PM 50.0 °F - 35.1 °F 57% 30.35 in - Calm Calm - N/A   Unknown
9:56 PM 46.9 °F - 37.0 °F 68% 30.36 in - Calm Calm - N/A   Unknown
10:56 PM 43.0 °F 40.3 °F 34.0 °F 71% 30.36 in - South 4.6 mph - N/A   Unknown
11:56 PM 39.9 °F 35.8 °F 33.1 °F 77% 30.37 in - South 5.8 mph - N/A   Unknown